Regional Weather Roundup
Issued by NWS

Home | Current Version | Previous Version | Text Only | Print | Product List | Glossary On
Versions: 1 2 3 4 5 6 7 8 9 10 11 12 13 14 15 16 17 18 19 20 21 22 23 24 25 26 27 28 29 30 31 32 33 34 35 36 37 38 39 40 41 42 43 44 45 46 47 48 49 50
560
ASUS43 KDMX 242008
RWRIA

WEATHER ROUNDUP FOR IOWA
NATIONAL WEATHER SERVICE DES MOINES IA
300 PM CDT SUN JUL 24 2016

NOTE: "FAIR" INDICATES FEW OR NO CLOUDS BELOW 12,000 FEET WITH NO
SIGNIFICANT WEATHER AND/OR OBSTRUCTIONS TO VISIBILITY.

* - THESE STATIONS ARE NOT NWS STATIONS...THUS NOT UNDER NWS
QUALITY CONTROL.  THEY ALSO DO NOT REPORT WEATHER SUCH
AS PRECIPITATION OR FOG.

IAZ001>003-012>014-020>022-031>034-043>046-242100-
   NORTHWEST IOWA

CITY           SKY/WX    TMP DP  RH WIND       PRES   REMARKS
CARROLL *      PTSUNNY   81  68  65 N7        29.98S HX  83
CHEROKEE *     CLOUDY    82  64  54 N16G23    30.03R HX  84
LE MARS *      PTSUNNY   82  61  47 NW8G14    30.03F HX  83
SHELDON *      CLOUDY    79  64  61 NW8G15    30.02F HX  81
SIOUX CITY     CLOUDY    86  60  41 N13       30.01F HX  86
SPENCER        CLOUDY    81  64  56 NW14G21   30.05R HX  82
STORM LAKE *   PTSUNNY   81  64  57 NW10      30.04R HX  82
$$

IAZ055>058-069>071-079>083-090>094-242100-
   SOUTHWEST IOWA

CITY           SKY/WX    TMP DP  RH WIND       PRES   REMARKS
ATLANTIC *     CLOUDY    84  68  58 N10       29.99R HX  87
CLARINDA *       N/A     84  70  61 MISG      29.99R HX  88
COUNCIL BLFS * CLOUDY    81  70  69 N8        30.00S HX  84
CRESTON *      MOSUNNY   82  66  57 N12       29.98R HX  85
HARLAN  *      PTSUNNY   81  70  69 N5        30.03R HX  84
LAMONI         CLOUDY    86  76  71 N13       29.94R HX  96
RED OAK *      CLOUDY    86  68  54 N13G20    29.97S HX  89
SHENANDOAH *   CLOUDY    84  68  58 NE9       29.98R HX  87
$$

IAZ047>049-059>061-072>074-084-242100-
   CENTRAL IOWA

CITY           SKY/WX    TMP DP  RH WIND       PRES   REMARKS
AMES           CLOUDY    86  69  56 N12       29.95R HX  90
ANKENY *         N/A    N/A N/A N/A MISG        N/A
BOONE *        CLOUDY    82  68  61 N9        29.96R HX  85
CHARITON *       N/A    N/A N/A N/A MISG        N/A
DES MOINES     CLOUDY    87  64  46 N14       29.93S HX  88
GRINNELL*      CLOUDY    85  73  65 N7        29.92F HX  91
KNOXVILLE *    PTSUNNY   86  72  62 N14G20    29.91S HX  92
MARSHALLTOWN   CLOUDY    87  70  56 NW12      29.93R HX  92
NEWTON *       MOSUNNY   86  68  54 N14       29.92S HX  89
PELLA *        PTSUNNY   86  73  64 N9        29.92S HX  93
PERRY *          N/A     82  71  69 N5        29.96S HX  86
$$

IAZ004>006-015-016-023>025-035-036-242100-
   NORTH CENTRAL IOWA

CITY           SKY/WX    TMP DP  RH WIND       PRES   REMARKS
ALGONA *       CLOUDY    79  64  61 NW8       30.00R HX  81
ESTHERVILLE    CLOUDY    77  64  64 W15G25    30.05R
FORT DODGE *   CLOUDY    81  63  54 NW5       29.97F HX  82
MASON CITY     CLOUDY    82  63  52 NW16G22   29.97R HX  83
FOREST CITY *    N/A     77  61  57 NW8       29.96S
IOWA FALLS *     N/A     84  66  55 NW12      29.97R HX  86
$$

IAZ007>011-017>019-026>030-037>042-050>054-066-242100-
   NORTHEAST IOWA

CITY           SKY/WX    TMP DP  RH WIND       PRES   REMARKS
CEDAR RAPIDS   MOSUNNY   87  80  79 NW9       29.88F HX 103
CHARLES CITY * SUNNY     82  64  54 NW12G18   29.93S HX  84
CLINTON *      CLOUDY    91  83  77 SW8       29.87S HX 114
DECORAH *      SUNNY     84  66  54 W8G15     29.90R HX  86
DUBUQUE        MOSUNNY   86  79  79 SW7       29.89F HX  99
MONTICELLO *   PTSUNNY   88  81  79 W9        29.88S HX 105
OELWEIN *      SUNNY     84  68  58 NW12      29.92R HX  87
WATERLOO       MOSUNNY   86  65  49 NW13      29.90R HX  88
$$

IAZ064-065-067-068-078-242100-
   EAST CENTRAL IOWA

CITY           SKY/WX    TMP DP  RH WIND       PRES   REMARKS
DAVENPORT      CLOUDY    89  80  74 SW10      29.88S HX 106
IOWA CITY      PTSUNNY   90  79  70 NW9       29.89S HX 106
MT. PLEASANT * MOSUNNY   88  79  74 SW6       29.90R HX 103
MUSCATINE *    CLOUDY    90  79  70 SW6       29.87S HX 105
QUAD CITIES    CLOUDY    90  78  68 W10       29.86S HX 104
$$

IAZ062-063-075>077-085>089-095>099-242100-
   SOUTHEAST IOWA

CITY           SKY/WX    TMP DP  RH WIND       PRES   REMARKS
BURLINGTON     PTSUNNY   91  82  75 NW7       29.88S HX 113
FAIRFIELD *    PTSUNNY   88  81  79 NW8G14    29.89S HX 105
KEOKUK *       CLOUDY    91  79  66 W7        29.89R HAZE    HX 107
OSKALOOSA *    CLOUDY    85  78  79 N9        29.91R HX  98
CENTERVILLE *    N/A     88  81  79 CALM      29.94R HX 105
OTTUMWA        CLOUDY    87  78  74 NW13      29.88F HX 100
WASHINGTON *   PTSUNNY   88  81  79 NW10      29.89S HX 105
$$

ABBREVIATIONS USED IN REMARKS
   TC - TEMPERATURES IN CELSIUS
  WCI - WIND CHILL INDEX
   HX - HEAT INDEX
  VSB - VISIBILITY
$$





USA.gov is the U.S. government's official web portal to all federal, state and local government web resources and services.